When you browse on this site, cookies collect data to enhance your experience and personalize the content and advertising you see.
Visit our Privacy Policy to learn more. By continuing to use the site, you agree to this use of cookies and data.
  • en Suisse
  • Liste des pays
  • À 7 jours
  • Température de l'eau
  • Carte satellitaire
  • Carte météo
  • Widgets météo
  • user-avatar
    Se connecter

    Météo par heure à Castlebar

    Ce jour, 14 Décembre, Vendredi

    Heure Température Précipitation Vent Pression Humidité
    00:00 +5°C° 0.1 mm 6 m/s 755 mmHg 92%
    01:00 +5°C° 0.1 mm 6 m/s 755 mmHg 91%
    02:00 +5°C° 0.1 mm 6 m/s 755 mmHg 91%
    03:00 +5°C° 0.1 mm 7 m/s 754 mmHg 91%
    04:00 +5°C° 0.1 mm 7 m/s 754 mmHg 90%
    05:00 +5°C° 0 mm 7 m/s 754 mmHg 88%
    06:00 +5°C° 0 mm 8 m/s 754 mmHg 88%
    07:00 +5°C° 0 mm 8 m/s 754 mmHg 87%
    08:00 +5°C° 0 mm 9 m/s 753 mmHg 87%
    09:00 +6°C° 0.1 mm 9 m/s 753 mmHg 86%
    10:00 +6°C° 0.1 mm 9 m/s 753 mmHg 86%
    11:00 +7°C° 0.1 mm 9 m/s 753 mmHg 85%
    12:00 +7°C° 0.4 mm 9 m/s 752 mmHg 86%
    13:00 +7°C° 0.4 mm 9 m/s 752 mmHg 86%
    14:00 +7°C° 0.4 mm 9 m/s 751 mmHg 87%
    15:00 +7°C° 0.1 mm 9 m/s 751 mmHg 88%
    16:00 +7°C° 0.1 mm 8 m/s 751 mmHg 89%
    17:00 +7°C° 0.1 mm 8 m/s 751 mmHg 90%
    18:00 +8°C° 0.2 mm 7 m/s 751 mmHg 90%
    19:00 +8°C° 0.2 mm 7 m/s 750 mmHg 91%
    20:00 +8°C° 0.2 mm 6 m/s 750 mmHg 92%
    21:00 +8°C° 1 mm 6 m/s 750 mmHg 93%
    22:00 +8°C° 1 mm 6 m/s 749 mmHg 93%
    23:00 +9°C° 1 mm 6 m/s 748 mmHg 94%

    Demain, 15 Décembre, Samedi

    Heure Température Précipitation Vent Pression Humidité
    00:00 +9°C° 1.7 mm 6 m/s 748 mmHg 94%
    01:00 +9°C° 1.7 mm 6 m/s 747 mmHg 94%
    02:00 +9°C° 1.7 mm 6 m/s 746 mmHg 94%
    03:00 +9°C° 0.5 mm 5 m/s 745 mmHg 95%
    04:00 +10°C° 0.5 mm 4 m/s 745 mmHg 95%
    05:00 +10°C° 0.5 mm 3 m/s 744 mmHg 96%
    06:00 +10°C° 1.2 mm 4 m/s 743 mmHg 95%
    07:00 +9°C° 1.2 mm 5 m/s 742 mmHg 95%
    08:00 +9°C° 1.2 mm 6 m/s 741 mmHg 95%
    09:00 +9°C° 3.1 mm 6 m/s 739 mmHg 95%
    10:00 +9°C° 3.1 mm 6 m/s 738 mmHg 95%
    11:00 +9°C° 3.1 mm 6 m/s 737 mmHg 95%
    12:00 +9°C° 0.7 mm 7 m/s 736 mmHg 93%
    13:00 +7°C° 0.7 mm 8 m/s 735 mmHg 90%
    14:00 +7°C° 0.7 mm 10 m/s 735 mmHg 88%
    15:00 +6°C° 0.2 mm 10 m/s 735 mmHg 84%
    16:00 +6°C° 0.2 mm 10 m/s 736 mmHg 80%
    17:00 +5°C° 0.2 mm 10 m/s 736 mmHg 76%
    18:00 +5°C° 0.1 mm 10 m/s 737 mmHg 75%
    19:00 +5°C° 0.1 mm 9 m/s 739 mmHg 75%
    20:00 +5°C° 0.1 mm 8 m/s 740 mmHg 75%
    21:00 +5°C° 0.1 mm 8 m/s 740 mmHg 75%
    22:00 +5°C° 0.1 mm 7 m/s 741 mmHg 75%
    23:00 +4°C° 0.1 mm 7 m/s 741 mmHg 75%

    Après-demain, 16 Décembre, Dimanche

    Heure Température Précipitation Vent Pression Humidité
    00:00 +4°C° 0.1 mm 7 m/s 741 mmHg 75%
    01:00 +4°C° 0.1 mm 7 m/s 742 mmHg 76%
    02:00 +4°C° 0.1 mm 7 m/s 742 mmHg 76%
    03:00 +4°C° 0.1 mm 7 m/s 742 mmHg 77%
    04:00 +3°C° 0.1 mm 6 m/s 742 mmHg 78%
    05:00 +3°C° 0.1 mm 6 m/s 742 mmHg 78%
    06:00 +3°C° 0.1 mm 6 m/s 742 mmHg 79%
    07:00 +3°C° 0.1 mm 6 m/s 742 mmHg 79%
    08:00 +3°C° 0.1 mm 6 m/s 742 mmHg 80%
    09:00 +4°C° 0.2 mm 6 m/s 743 mmHg 78%
    10:00 +4°C° 0.2 mm 6 m/s 743 mmHg 77%
    11:00 +5°C° 0.2 mm 7 m/s 743 mmHg 75%
    12:00 +5°C° 0.2 mm 6 m/s 743 mmHg 75%
    13:00 +5°C° 0.2 mm 6 m/s 743 mmHg 75%
    14:00 +5°C° 0.2 mm 6 m/s 744 mmHg 76%
    15:00 +5°C° 0.2 mm 6 m/s 744 mmHg 77%
    16:00 +4°C° 0.2 mm 6 m/s 745 mmHg 79%
    17:00 +4°C° 0.2 mm 6 m/s 745 mmHg 81%
    18:00 +4°C° 0.2 mm 6 m/s 746 mmHg 81%
    19:00 +5°C° 0.2 mm 5 m/s 747 mmHg 82%
    20:00 +5°C° 0.2 mm 5 m/s 747 mmHg 82%
    21:00 +3°C° 0 mm 5 m/s 748 mmHg 82%
    22:00 +3°C° 0 mm 5 m/s 748 mmHg 82%
    23:00 +3°C° 0 mm 5 m/s 749 mmHg 83%

    17 Décembre, Lundi

    Heure Température Précipitation Vent Pression Humidité
    00:00 +3°C° 0 mm 5 m/s 749 mmHg 83%
    01:00 +3°C° 0 mm 5 m/s 749 mmHg 83%
    02:00 +3°C° 0 mm 5 m/s 749 mmHg 84%
    03:00 +3°C° 0 mm 5 m/s 749 mmHg 85%
    04:00 +3°C° 0 mm 6 m/s 748 mmHg 85%
    05:00 +3°C° 0 mm 6 m/s 748 mmHg 86%
    06:00 +4°C° 0.1 mm 7 m/s 748 mmHg 86%
    07:00 +4°C° 0.1 mm 8 m/s 747 mmHg 86%
    08:00 +5°C° 0.1 mm 9 m/s 747 mmHg 86%
    09:00 +6°C° 0.4 mm 10 m/s 746 mmHg 86%
    10:00 +7°C° 0.4 mm 11 m/s 744 mmHg 85%
    11:00 +8°C° 0.4 mm 12 m/s 743 mmHg 85%
    12:00 +8°C° 1.3 mm 12 m/s 742 mmHg 85%
    13:00 +8°C° 1.3 mm 12 m/s 741 mmHg 86%
    14:00 +8°C° 1.3 mm 13 m/s 739 mmHg 87%
    15:00 +8°C° 3.2 mm 12 m/s 739 mmHg 86%
    16:00 +8°C° 3.2 mm 10 m/s 739 mmHg 85%
    17:00 +7°C° 3.2 mm 9 m/s 738 mmHg 84%
    18:00 +7°C° 0.7 mm 8 m/s 738 mmHg 83%
    19:00 +6°C° 0.7 mm 8 m/s 739 mmHg 82%
    20:00 +6°C° 0.7 mm 7 m/s 739 mmHg 82%
    21:00 +6°C° 0 mm 7 m/s 738 mmHg 83%
    22:00 +6°C° 0 mm 7 m/s 738 mmHg 84%
    23:00 +6°C° 0 mm 7 m/s 738 mmHg 85%

    18 Décembre, Mardi

    Heure Température Précipitation Vent Pression Humidité
    00:00 +6°C° 0.3 mm 7 m/s 737 mmHg 86%
    01:00 +5°C° 0.3 mm 6 m/s 737 mmHg 88%
    02:00 +5°C° 0.3 mm 6 m/s 736 mmHg 89%
    03:00 +5°C° 0.4 mm 6 m/s 736 mmHg 89%
    04:00 +6°C° 0.4 mm 5 m/s 735 mmHg 88%
    05:00 +6°C° 0.4 mm 5 m/s 735 mmHg 88%
    06:00 +6°C° 0.1 mm 5 m/s 735 mmHg 87%
    07:00 +6°C° 0.1 mm 5 m/s 735 mmHg 86%
    08:00 +5°C° 0.1 mm 6 m/s 735 mmHg 86%
    09:00 +5°C° 0.2 mm 6 m/s 735 mmHg 83%
    10:00 +7°C° 0.2 mm 6 m/s 735 mmHg 81%
    11:00 +6°C° 0.2 mm 7 m/s 736 mmHg 78%
    12:00 +6°C° 0.3 mm 7 m/s 736 mmHg 77%
    13:00 +6°C° 0.3 mm 7 m/s 736 mmHg 76%
    14:00 +5°C° 0.3 mm 7 m/s 736 mmHg 75%
    15:00 +5°C° 0.1 mm 7 m/s 736 mmHg 76%
    16:00 +4°C° 0.1 mm 8 m/s 736 mmHg 77%
    17:00 +4°C° 0.1 mm 8 m/s 736 mmHg 78%
    18:00 +4°C° 0.2 mm 8 m/s 736 mmHg 78%
    19:00 +5°C° 0.2 mm 8 m/s 736 mmHg 78%
    20:00 +5°C° 0.2 mm 8 m/s 737 mmHg 78%
    21:00 +5°C° 0.1 mm 8 m/s 737 mmHg 77%
    22:00 +5°C° 0.1 mm 8 m/s 737 mmHg 77%
    23:00 +5°C° 0.1 mm 9 m/s 737 mmHg 77%

    19 Décembre, Mercredi

    Heure Température Précipitation Vent Pression Humidité
    00:00 +3°C° 0.2 mm 9 m/s 737 mmHg 77%
    01:00 +3°C° 0.2 mm 9 m/s 737 mmHg 77%
    02:00 +3°C° 0.2 mm 9 m/s 737 mmHg 77%
    03:00 +3°C° 0.3 mm 9 m/s 736 mmHg 79%
    04:00 +3°C° 0.3 mm 9 m/s 736 mmHg 80%
    05:00 +3°C° 0.3 mm 9 m/s 735 mmHg 82%
    06:00 +5°C° 0.9 mm 9 m/s 735 mmHg 82%
    07:00 +5°C° 0.9 mm 9 m/s 735 mmHg 83%
    08:00 +6°C° 0.9 mm 9 m/s 734 mmHg 83%
    09:00 +6°C° 0.6 mm 9 m/s 734 mmHg 81%
    10:00 +6°C° 0.6 mm 9 m/s 734 mmHg 79%
    11:00 +6°C° 0.6 mm 9 m/s 734 mmHg 77%
    12:00 +6°C° 0.5 mm 9 m/s 734 mmHg 76%
    13:00 +6°C° 0.5 mm 9 m/s 734 mmHg 76%
    14:00 +6°C° 0.5 mm 9 m/s 734 mmHg 75%
    15:00 +6°C° 0.6 mm 9 m/s 734 mmHg 76%
    16:00 +6°C° 0.6 mm 9 m/s 734 mmHg 77%
    17:00 +6°C° 0.6 mm 9 m/s 735 mmHg 77%
    18:00 +6°C° 0.3 mm 8 m/s 735 mmHg 78%
    19:00 +5°C° 0.3 mm 8 m/s 736 mmHg 79%
    20:00 +5°C° 0.3 mm 8 m/s 736 mmHg 80%
    21:00 +5°C° 0.4 mm 8 m/s 737 mmHg 79%
    22:00 +5°C° 0.4 mm 8 m/s 737 mmHg 78%
    23:00 +5°C° 0.4 mm 8 m/s 738 mmHg 77%
    Voir plus